Regional Weather Roundup
Issued by NWS Upton, NY

Home | Current Version | Previous Version | Text Only | Print | Product List | Glossary On
Versions: 1 2 3 4 5 6 7 8 9 10 11 12 13 14 15 16 17 18 19 20 21 22 23 24 25 26 27 28 29 30 31 32 33 34 35 36 37 38 39 40 41 42 43 44 45 46 47 48
000
ASUS41 KOKX 040404
RWROKX

REGIONAL WEATHER ROUNDUP
NATIONAL WEATHER SERVICE NEW YORK NY
1200 AM EDT FRI SEP 04 2015

NOTE: "FAIR" INDICATES FEW OR NO CLOUDS BELOW 12,000 FEET WITH NO
SIGNIFICANT WEATHER AND/OR OBSTRUCTIONS TO VISIBILITY.

NYZ071-072-176-178-NJZ106-104-040500-
NEW YORK CITY METRO AREA


CITY           SKY/WX    TMP DP  RH WIND       PRES   REMARKS
CENTRAL PARK   PTCLDY    82  65  56 CALM      29.92S
LAGUARDIA APRT MOCLDY    83  65  54 CALM      29.88S
KENNEDY INTL   MOCLDY    77  70  79 S3        29.90R
NEWARK/LIBERTY MOCLDY    83  66  56 W6        29.89R
BRNX BOT. GARD   N/A     75  66  73 N2        29.90S
TETERBORO      PTCLDY    81  63  54 N5        29.89R
$$

NYZ177-179-078>081-040500-
LONG ISLAND NEW YORK

CITY           SKY/WX    TMP DP  RH WIND       PRES   REMARKS
FARMINGDALE    PTCLDY    77  69  76 CALM      29.90R
ISLIP          MOCLDY    74  69  85 CALM      29.89R
SHIRLEY        PTCLDY    73  70  90 CALM      29.90S FOG
WESTHAMPTON    PTCLDY    69  67  93 CALM      29.92R FOG
MONTAUK POINT    N/A     73  72  96 CALM      29.92R
$$

NYZ052-065-067-040500-
HUDSON VALLEY

CITY           SKY/WX    TMP DP  RH WIND       PRES   REMARKS
WHITE PLAINS   MOCLDY    74  64  71 SW3       29.91R
NEWBURGH       CLEAR     75  68  78 VRB3      29.95R
MONTGOMERY     PTCLDY    71  67  87 CALM      29.93S
POUGHKEEPSIE   PTCLDY    73  66  78 CALM      29.92R
ALBANY         MOCLDY    74  61  63 N10       29.96R
$$

NJZ001-105-106-008-010-013-015-019>022-104-040500-
NEW JERSEY

CITY           SKY/WX    TMP DP  RH WIND       PRES   REMARKS
NEWARK/LIBERTY MOCLDY    83  66  56 W6        29.89R
TETERBORO      PTCLDY    81  63  54 N5        29.89R
CALDWELL       PTCLDY    79  67  66 NE5       29.91R
MORRISTOWN     PTCLDY    72  66  83 CALM      29.91R
SOMERVILLE     PTCLDY    75  67  76 CALM      29.88S
SUSSEX         MOCLDY    70  65  84 CALM      29.93S
ANDOVER          N/A     72  69  90 CALM      29.93S
TRENTON        PTCLDY    78  67  68 CALM      29.89S
MILLVILLE      PTCLDY    71  69  93 CALM      29.89R FOG
ATLANTIC CITY  PTCLDY    70  67  90 CALM      29.89S FOG
WRIGHTSTOWN    CLEAR     71  69  93 CALM      29.87S
TOMS RIVER     PTCLDY    70  64  83 CALM      29.90S
BELMAR         PTCLDY    75  64  69 CALM      29.90S
$$

PAZ047>061-062-071-040500-
EASTERN PENNSYLVANIA

CITY           SKY/WX    TMP DP  RH WIND       PRES   REMARKS
PHILADELPHIA   MOCLDY    80  69  69 SE3       29.90S
ALLENTOWN      CLEAR     71  66  84 N5        29.91F
SCRANTON       PTCLDY    71  66  84 E5        29.95S
$$

CTZ002-004>006-009-010-012-RIZ004-006-007-MAZ004-011-015-040500-
SOUTHERN NEW ENGLAND
 IN CT

CITY           SKY/WX    TMP DP  RH WIND       PRES   REMARKS
BRADLEY INTL   MOCLDY    73  66  78 N5        29.91R
HARTFORD       CLEAR     78  67  68 N7        29.91R
DANBURY        PTCLDY    69  62  78 SW3       29.93S
WTRBRY/OXFORD  CLEAR     75  64  69 NE7       29.95R
BRIDGEPORT     PTCLDY    77  68  73 CALM      29.89R
MERIDEN        CLEAR     72  65  78 CALM      29.90R
NEW HAVEN      PTCLDY    72  66  81 CALM      29.90R
CHESTER        NOT AVBL
GROTON         PTCLDY    73  72  96 N3        29.90R FOG
WILLIMANTIC    MOCLDY    73  69  87 N3        29.92R

 IN RI

CITY           SKY/WX    TMP DP  RH WIND       PRES   REMARKS
PROVIDENCE     CLOUDY    75  72  90 NE7       29.92R FOG
BLOCK ISLAND   CLOUDY    72  72 100 CALM      29.91R VSB<1/4
WESTERLY       PTCLDY    71  69  93 CALM      29.91R FOG

 IN MA

CITY           SKY/WX    TMP DP  RH WIND       PRES   REMARKS
BOSTON         CLOUDY    73  67  81 CALM      29.94R THUNDER
WORCESTER      PTCLDY    73  65  75 NE3       29.97R
WESTFIELD      CLEAR     70  66  87 N7        29.93R
PROVINCETOWN     N/A     70  64  83 N3        29.93R
NANTUCKET        N/A    N/A N/A N/A MISG        N/A
$$

ANZ330-335-338-340-345-350-353-355-040500-
COASTAL MARINE OBSERVATIONS


STATION/POSITION TIME  SKY/WX   TEMP    WIND        PRES    VSBY  WAVE
                                AIR SEA DIR/SP/G                  HT/PER
                 (UTC)          (F)     (DEG/KT/KT) (MB)    (MI)  (FT/S)
NY HARB ENTRANCE 0250            78 78  240/  4/  4 1011.7          1/ 6
4S FIRE IS       NOT AVBL
20S FIRE ISLAND  0250            76 77  190/  2/  4 1011.6          1/ 6
GREAT SOUTH BAY  0300            78 80  270/  4/  4   N/A
23SW MTP         0350            74 74  280/  2/  2 1012.1          1/ 6
HUDSON CANYON    NOT AVBL
KINGS POINT      0300            79 77  170/  3/  5 1011.4
EXECUTION ROCKS  0300            77      CALM  /  2   N/A
CENTRAL LI SOUND NOT AVBL
EASTERN LI SOUND 0300            73 71   CALM  /  2   N/A
ROBBINS REEF     0300            81     230/  1/  2 1010.9
$$


>>>>>>>>>>>>>>>>>>>>>>>>>>>> KEY <<<<<<<<<<<<<<<<<<<<<<<<<<<
>                                                          <
>     SKY/WX - SKY CONDITION/PRESENT WEATHER               <
>     TMP    - TEMPERATURE IN FAHRENHEIT                   <
>     DP     - DEWPOINT IN FAHRENHEIT                      <
>     RH     - RELATIVE HUMIDITY IN PERCENT                <
>     WIND   - DIRECTION AND SPEED IN MPH                  <
>     PRES   - MEAN SEA LEVEL PRESSURE IN INCHES OF HG     <
>     WCI    - WIND CHILL INDEX                            <
>     VSB    - VISIBILITY IN MILES                         <
>     HX     - HEAT INDEX                                  <
>     TC     - TEMPERATURE IN CELSIUS                      <
>     VRB    - VARIABLE WIND DIRECTION                     <
>                                                          <
>>>>>>>>>>>>>>>>>>>>>>>>>>>> KEY <<<<<<<<<<<<<<<<<<<<<<<<<<<





USA.gov is the U.S. government's official web portal to all federal, state and local government web resources and services.